Project,Study,Ord_Occ,Event_Num,Cast_ID,Date_Time_UTC,Date_Time_PST,Lat_Dec,Lon_Dec,Sta_ID,Line,Sta,Depth,Pressure,PrQ,Temp1,Temp1Q,Temp2,Temp2Q,TempAve,Salt1,Salt1Q,Salt1_Corr,Salt2,Salt2Q,Salt2_Corr,SaltAve_Corr,Ox1,Ox1Q,Ox1_CruiseCorr,Ox1_StaCorr,Ox2,Ox2Q,Ox2_CruiseCorr,Ox2_StaCorr,OxAve_StaCorr,Ox1uM,Ox1uM_CruiseCorr,Ox1uM_StaCorr,Ox2uM,Ox2uM_CruiseCorr,Ox2uM_StaCorr,OxAveuM_StaCorr,FluorV,FluorQ,EstChl_CruiseCorr,EstChl_StaCorr,ISUSV,ISUSQ,EstNO3_CruiseCorr,EstNO3_StaCorr,SigThetaTS1,SigThetaTS1Q,SigThetaTS2,SigThetaTS2Q,BAT,XMiss,TransQ,pH,pHQ,SPAR,SPARQ,PAR,PARQ,PoT1,PoT2,DynHt,SVA,OxSat1,OxSat2,BTL_Depth,BTL_Temp,SaltB,OxB,OxBuM,Chl-a,Phaeo,NO3,NO2,NH4,PO4,SIL
CalCOFI,2105SH,011,,2105_011u,06-May-2021 09:07:23,06-May-2021 01:07:23,31.17684,-120.92088,093.3 080.0,093.3,080.0,513.000,517.210,,5.9623,,5.9620,,5.9622,34.2926,,34.2938,34.2930,,34.2949,34.2944,0.2803,,0.3592,0.3021,0.2982,,0.3683,0.3177,0.3099,12.189,15.2412,34.1854,12.966,18.2927,34.5894,34.3874,0.0355,,,,0.5913,,0.0000,,27.0041,,27.0044,,,,,,,,,,,5.9174,5.9171,0.8961,111.611,4.034,4.292,,,,,,,,,,,,
CalCOFI,2105SH,011,,2105_011u,06-May-2021 09:07:25,06-May-2021 01:07:25,31.17684,-120.92088,093.3 080.0,093.3,080.0,512.000,516.201,,5.9704,,5.9741,,5.9723,34.2903,,34.2915,34.2908,,34.2927,34.2921,0.2802,,0.3591,0.3020,0.2936,,0.3635,0.3129,0.3075,12.185,15.2370,34.1825,12.767,18.2883,34.4443,34.3134,0.0364,,,,0.5911,,0.0000,,27.0012,,27.0012,,,,,,,,,,,5.9255,5.9292,0.8961,111.879,4.034,4.227,512,5.970,34.2872,0.317,13.83,,,41.12,0.00,0.00,3.10,75.39
CalCOFI,2105SH,011,,2105_011u,06-May-2021 09:07:26,06-May-2021 01:07:26,31.17684,-120.92088,093.3 080.0,093.3,080.0,511.000,515.191,,5.9754,,5.9790,,5.9772,34.2896,,34.2908,34.2900,,34.2919,34.2914,0.2801,,0.3590,0.3019,0.2909,,0.3607,0.3101,0.3060,12.182,15.2339,34.1802,12.650,18.2851,34.3589,34.2696,0.0359,,,,0.5910,,0.0000,,27.0000,,26.9999,,,,,,,,,,,5.9306,5.9342,0.8961,111.982,4.033,4.189,,,,,,,,,,,,
CalCOFI,2105SH,011,,2105_011u,06-May-2021 09:10:03,06-May-2021 01:10:03,31.17638,-120.92099,093.3 080.0,093.3,080.0,510.000,514.182,,5.9643,,5.9650,,5.9647,34.2908,,34.2920,34.2918,,34.2937,34.2929,0.2733,,0.3519,0.2947,0.2768,,0.3461,0.2954,0.2951,11.885,14.9234,33.9613,12.038,17.9643,33.9126,33.9370,0.0362,,,,0.5869,,0.0000,,27.0024,,27.0031,,,,,,,,,,,5.9196,5.9203,0.9188,111.735,3.934,3.985,,,,,,,,,,,,
CalCOFI,2105SH,011,,2105_011u,06-May-2021 09:10:46,06-May-2021 01:10:46,31.17628,-120.92106,093.3 080.0,093.3,080.0,509.000,513.172,,5.9654,,5.9646,,5.9650,34.2904,,34.2916,34.2918,,34.2937,34.2927,0.2719,,0.3505,0.2932,0.2751,,0.3443,0.2936,0.2934,11.823,14.8586,33.9156,11.965,17.8974,33.8593,33.8875,0.0350,,,,0.5863,,0.0000,,27.0019,,27.0032,,,,,,,,,,,5.9208,5.9200,0.9252,111.765,3.914,3.961,,,,,,,,,,,,
CalCOFI,2105SH,011,,2105_011u,06-May-2021 09:10:48,06-May-2021 01:10:48,31.17628,-120.92106,093.3 080.0,093.3,080.0,508.000,512.163,,5.9662,,5.9675,,5.9669,34.2906,,34.2918,34.2914,,34.2933,34.2926,0.2718,,0.3503,0.2931,0.2800,,0.3494,0.2987,0.2959,11.820,14.8554,33.9134,12.175,17.8941,34.0125,33.9630,0.0367,,,,0.5863,,0.0000,,27.0020,,27.0024,,,,,,,,,,,5.9217,5.9230,0.9254,111.746,3.913,4.031,,,,,,,,,,,,
CalCOFI,2105SH,011,,2105_011u,06-May-2021 09:10:49,06-May-2021 01:10:49,31.17628,-120.92106,093.3 080.0,093.3,080.0,507.000,511.153,,5.9706,,5.9715,,5.9711,34.2894,,34.2906,34.2903,,34.2922,34.2914,0.2717,,0.3502,0.2930,0.2849,,0.3545,0.3039,0.2985,11.817,14.8523,33.9112,12.388,17.8909,34.1678,34.0395,0.0360,,,,0.5864,,0.0000,,27.0004,,27.0011,,,,,,,,,,,5.9262,5.9271,0.9254,111.882,3.912,4.101,,,,,,,,,,,,
CalCOFI,2105SH,011,,2105_011u,06-May-2021 09:10:50,06-May-2021 01:10:50,31.17628,-120.92108,093.3 080.0,093.3,080.0,506.000,510.144,,5.9705,,5.9723,,5.9714,34.2895,,34.2907,34.2903,,34.2922,34.2915,0.2746,,0.3533,0.2961,0.2787,,0.3481,0.2974,0.2968,11.942,14.9830,34.0033,12.122,18.0259,33.9738,33.9886,0.0368,,,,0.5866,,0.0000,,27.0006,,27.0009,,,,,,,,,,,5.9262,5.9280,0.9254,111.857,3.953,4.013,,,,,,,,,,,,
CalCOFI,2105SH,011,,2105_011u,06-May-2021 09:10:51,06-May-2021 01:10:51,31.17626,-120.92108,093.3 080.0,093.3,080.0,505.000,509.134,,5.9707,,5.9719,,5.9713,34.2895,,34.2907,34.2902,,34.2921,34.2914,0.2779,,0.3567,0.2996,0.2786,,0.3480,0.2973,0.2985,12.086,15.1335,34.1095,12.115,18.1814,33.9687,34.0391,0.0363,,,,0.5867,,0.0000,,27.0005,,27.0009,,,,,,,,,,,5.9265,5.9276,0.9254,111.849,4.001,4.011,,,,,,,,,,,,
CalCOFI,2105SH,011,,2105_011u,06-May-2021 09:10:52,06-May-2021 01:10:52,31.17626,-120.92108,093.3 080.0,093.3,080.0,504.000,508.125,,5.9706,,5.9711,,5.9709,34.2897,,34.2909,34.2903,,34.2922,34.2916,0.2790,,0.3579,0.3007,0.2798,,0.3492,0.2985,0.2996,12.132,15.1816,34.1434,12.168,18.2311,34.0074,34.0754,0.0361,,,,0.5868,,0.0000,,27.0006,,27.0011,,,,,,,,,,,5.9265,5.9269,0.9254,111.822,4.016,4.028,,,,,,,,,,,,
CalCOFI,2105SH,011,,2105_011u,06-May-2021 09:10:53,06-May-2021 01:10:53,31.17626,-120.92108,093.3 080.0,093.3,080.0,503.000,507.116,,5.9723,,5.9722,,5.9723,34.2889,,34.2901,34.2903,,34.2922,34.2912,0.2784,,0.3573,0.3001,0.2874,,0.3571,0.3065,0.3033,12.106,15.1544,34.1242,12.497,18.2030,34.2473,34.1858,0.0354,,,,0.5869,,0.0000,,26.9998,,27.0009,,,,,,,,,,,5.9283,5.9282,0.9254,111.887,4.008,4.137,,,,,,,,,,,,
CalCOFI,2105SH,011,,2105_011u,06-May-2021 09:10:54,06-May-2021 01:10:54,31.17626,-120.92109,093.3 080.0,093.3,080.0,502.000,506.106,,5.9858,,5.9838,,5.9848,34.2855,,34.2867,34.2879,,34.2898,34.2883,0.2785,,0.3574,0.3002,0.2903,,0.3601,0.3095,0.3049,12.112,15.1607,34.1286,12.626,18.2095,34.3414,34.2350,0.0360,,,,0.5871,,0.0000,,26.9954,,26.9975,,,,,,,,,,,5.9418,5.9398,0.9254,112.303,4.011,4.181,,,,,,,,,,,,
CalCOFI,2105SH,011,,2105_011u,06-May-2021 09:10:54,06-May-2021 01:10:54,31.17626,-120.92110,093.3 080.0,093.3,080.0,501.000,505.097,,5.9950,,5.9932,,5.9941,34.2854,,34.2866,34.2871,,34.2890,34.2878,0.2854,,0.3646,0.3075,0.2836,,0.3532,0.3025,0.3050,12.410,15.4722,34.3483,12.332,18.5313,34.1270,34.2377,0.0347,,,,0.5872,,0.0000,,26.9941,,26.9957,,,,,,,,,,,5.9510,5.9493,0.9254,112.418,4.111,4.085,,,,,,,,,,,,
CalCOFI,2105SH,011,,2105_011u,06-May-2021 09:10:55,06-May-2021 01:10:55,31.17626,-120.92110,093.3 080.0,093.3,080.0,500.000,504.087,,5.9969,,5.9999,,5.9984,34.2854,,34.2866,34.2861,,34.2880,34.2873,0.2834,,0.3625,0.3054,0.2828,,0.3523,0.3017,0.3036,12.325,15.3834,34.2857,12.298,18.4395,34.1022,34.1940,0.0357,,,,0.5874,,0.0000,,26.9939,,26.9941,,,,,,,,,,,5.9531,5.9560,0.9254,112.432,4.083,4.074,,,,,,,,,,,,
CalCOFI,2105SH,011,,2105_011u,06-May-2021 09:10:56,06-May-2021 01:10:56,31.17626,-120.92110,093.3 080.0,093.3,080.0,499.000,503.078,,5.9973,,5.9990,,5.9982,34.2854,,34.2866,34.2860,,34.2879,34.2873,0.2812,,0.3602,0.3030,0.2830,,0.3525,0.3019,0.3025,12.230,15.2840,34.2156,12.307,18.3369,34.1088,34.1622,0.0360,,,,0.5876,,0.0000,,26.9938,,26.9941,,,,,,,,,,,5.9535,5.9553,0.9254,112.425,4.051,4.077,,,,,,,,,,,,
CalCOFI,2105SH,011,,2105_011u,06-May-2021 09:10:57,06-May-2021 01:10:57,31.17626,-120.92110,093.3 080.0,093.3,080.0,498.000,502.069,,5.9959,,5.9949,,5.9954,34.2857,,34.2869,34.2870,,34.2889,34.2879,0.2853,,0.3645,0.3074,0.2899,,0.3597,0.3091,0.3083,12.405,15.4670,34.3446,12.609,18.5259,34.3290,34.3368,0.0353,,,,0.5879,,0.0000,,26.9942,,26.9954,,,,,,,,,,,5.9523,5.9513,0.9254,112.368,4.109,4.177,,,,,,,,,,,,
CalCOFI,2105SH,011,,2105_011u,06-May-2021 09:10:58,06-May-2021 01:10:58,31.17626,-120.92110,093.3 080.0,093.3,080.0,497.000,501.059,,5.9976,,5.9976,,5.9976,34.2853,,34.2865,34.2864,,34.2883,34.2874,0.2891,,0.3684,0.3114,0.2939,,0.3638,0.3132,0.3123,12.570,15.6395,34.4663,12.779,18.7041,34.4530,34.4597,0.0355,,,,0.5881,,0.0000,,26.9937,,26.9946,,,,,,,,,,,5.9540,5.9540,0.9254,112.411,4.164,4.233,,,,,,,,,,,,
CalCOFI,2105SH,011,,2105_011u,06-May-2021 09:10:59,06-May-2021 01:10:59,31.17626,-120.92110,093.3 080.0,093.3,080.0,496.000,500.050,,6.0011,,5.9998,,6.0005,34.2846,,34.2858,34.2863,,34.2882,34.2870,0.2870,,0.3662,0.3091,0.2870,,0.3567,0.3060,0.3076,12.482,15.5475,34.4014,12.482,18.6091,34.2364,34.3189,0.0362,,,,0.5884,,0.0000,,26.9927,,26.9942,,,,,,,,,,,5.9576,5.9563,0.9254,112.492,4.135,4.135,,,,,,,,,,,,
CalCOFI,2105SH,011,,2105_011u,06-May-2021 09:11:00,06-May-2021 01:11:00,31.17626,-120.92110,093.3 080.0,093.3,080.0,495.000,499.041,,6.0032,,6.0022,,6.0027,34.2847,,34.2859,34.2865,,34.2884,34.2872,0.2850,,0.3642,0.3070,0.2868,,0.3565,0.3058,0.3064,12.391,15.4524,34.3343,12.474,18.5108,34.2306,34.2825,0.0366,,,,0.5887,,0.0000,,26.9925,,26.9940,,,,,,,,,,,5.9597,5.9588,0.9254,112.497,4.105,4.132,,,,,,,,,,,,
CalCOFI,2105SH,011,,2105_011u,06-May-2021 09:11:00,06-May-2021 01:11:00,31.17626,-120.92110,093.3 080.0,093.3,080.0,494.000,498.031,,6.0033,,6.0067,,6.0050,34.2844,,34.2856,34.2850,,34.2869,34.2863,0.2850,,0.3642,0.3070,0.2907,,0.3605,0.3099,0.3085,12.391,15.4524,34.3343,12.643,18.5108,34.3538,34.3441,0.0366,,,,0.5890,,0.0000,,26.9922,,26.9923,,,,,,,,,,,5.9600,5.9633,0.9254,112.512,4.105,4.189,,,,,,,,,,,,
CalCOFI,2105SH,011,,2105_011u,06-May-2021 09:11:01,06-May-2021 01:11:01,31.17626,-120.92110,093.3 080.0,093.3,080.0,493.000,497.022,,6.0075,,6.0082,,6.0079,34.2836,,34.2848,34.2848,,34.2867,34.2858,0.2850,,0.3642,0.3070,0.2980,,0.3681,0.3175,0.3123,12.393,15.4544,34.3358,12.959,18.5130,34.5843,34.4601,0.0362,,,,0.5892,,0.0000,,26.9910,,26.9920,,,,,,,,,,,5.9642,5.9649,0.9254,112.612,4.106,4.294,,,,,,,,,,,,
CalCOFI,2105SH,011,,2105_011u,06-May-2021 09:11:02,06-May-2021 01:11:02,31.17626,-120.92110,093.3 080.0,093.3,080.0,492.000,496.013,,6.0152,,6.0104,,6.0128,34.2822,,34.2834,34.2852,,34.2871,34.2853,0.2901,,0.3695,0.3124,0.2950,,0.3650,0.3144,0.3134,12.616,15.6876,34.5002,12.829,18.7538,34.4895,34.4949,0.0361,,,,0.5894,,0.0000,,26.9890,,26.9919,,,,,,,,,,,5.9720,5.9672,0.9254,112.801,4.181,4.251,,,,,,,,,,,,
CalCOFI,2105SH,011,,2105_011u,06-May-2021 09:11:03,06-May-2021 01:11:03,31.17626,-120.92110,093.3 080.0,093.3,080.0,491.000,495.003,,6.0336,,6.0297,,6.0317,34.2810,,34.2822,34.2845,,34.2864,34.2843,0.2951,,0.3747,0.3177,0.2944,,0.3643,0.3138,0.3158,12.834,15.9155,34.6609,12.804,18.9893,34.4712,34.5661,0.0361,,,,0.5897,,0.0000,,26.9857,,26.9890,,,,,,,,,,,5.9904,5.9865,0.9254,113.116,4.255,4.244,,,,,,,,,,,,
CalCOFI,2105SH,011,,2105_011u,06-May-2021 09:11:04,06-May-2021 01:11:04,31.17626,-120.92111,093.3 080.0,093.3,080.0,490.000,493.994,,6.0404,,6.0555,,6.0480,34.2820,,34.2832,34.2832,,34.2851,34.2842,0.2900,,0.3694,0.3123,0.3016,,0.3718,0.3213,0.3168,12.612,15.6834,34.4972,13.114,18.7495,34.6973,34.5973,0.0359,,,,0.5900,,0.0000,,26.9856,,26.9846,,,,,,,,,,,5.9973,6.0123,0.9254,113.123,4.182,4.350,,,,,,,,,,,,
CalCOFI,2105SH,011,,2105_011u,06-May-2021 09:11:05,06-May-2021 01:11:05,31.17626,-120.92112,093.3 080.0,093.3,080.0,489.000,492.984,,6.0542,,6.0518,,6.0530,34.2812,,34.2824,34.2835,,34.2854,34.2839,0.2913,,0.3707,0.3137,0.2960,,0.3660,0.3154,0.3146,12.665,15.7388,34.5363,12.873,18.8067,34.5216,34.5290,0.0353,,,,0.5904,,0.0000,,26.9832,,26.9853,,,,,,,,,,,6.0111,6.0087,0.9254,113.348,4.201,4.270,,,,,,,,,,,,
CalCOFI,2105SH,011,,2105_011u,06-May-2021 09:11:06,06-May-2021 01:11:06,31.17625,-120.92112,093.3 080.0,093.3,080.0,488.000,491.975,,6.0607,,6.0609,,6.0608,34.2813,,34.2825,34.2831,,34.2850,34.2838,0.2981,,0.3779,0.3209,0.2946,,0.3645,0.3140,0.3175,12.963,16.0503,34.7560,12.811,19.1286,34.4764,34.6162,0.0355,,,,0.5908,,0.0000,,26.9825,,26.9839,,,,,,,,,,,6.0177,6.0179,0.9254,113.412,4.300,4.250,,,,,,,,,,,,
CalCOFI,2105SH,011,,2105_011u,06-May-2021 09:11:07,06-May-2021 01:11:07,31.17624,-120.92112,093.3 080.0,093.3,080.0,487.000,490.966,,6.0718,,6.0661,,6.0690,34.2815,,34.2827,34.2832,,34.2851,34.2839,0.2946,,0.3742,0.3172,0.3004,,0.3706,0.3200,0.3186,12.811,15.8914,34.6439,13.064,18.9644,34.6609,34.6524,0.0363,,,,0.5911,,0.0000,,26.9812,,26.9833,,,,,,,,,,,6.0288,6.0231,0.9254,113.528,4.251,4.334,,,,,,,,,,,,
CalCOFI,2105SH,011,,2105_011u,06-May-2021 09:11:08,06-May-2021 01:11:08,31.17624,-120.92112,093.3 080.0,093.3,080.0,486.000,489.956,,6.0635,,6.0642,,6.0639,34.2819,,34.2831,34.2826,,34.2845,34.2838,0.2932,,0.3727,0.3157,0.3073,,0.3777,0.3272,0.3215,12.749,15.8266,34.5982,13.364,18.8975,34.8797,34.7390,0.0373,,,,0.5914,,0.0000,,26.9826,,26.9830,,,,,,,,,,,6.0206,6.0214,0.9254,113.374,4.230,4.434,,,,,,,,,,,,
CalCOFI,2105SH,011,,2105_011u,06-May-2021 09:11:09,06-May-2021 01:11:09,31.17624,-120.92112,093.3 080.0,093.3,080.0,485.000,488.947,,6.0717,,6.0696,,6.0707,34.2797,,34.2809,34.2831,,34.2850,34.2830,0.2960,,0.3757,0.3186,0.3005,,0.3707,0.3201,0.3194,12.872,15.9552,34.6889,13.066,19.0303,34.6623,34.6756,0.0356,,,,0.5917,,0.0000,,26.9798,,26.9828,,,,,,,,,,,6.0289,6.0268,0.9254,113.635,4.271,4.335,,,,,,,,,,,,
CalCOFI,2105SH,011,,2105_011u,06-May-2021 09:11:09,06-May-2021 01:11:09,31.17624,-120.92112,093.3 080.0,093.3,080.0,484.000,487.938,,6.0888,,6.0884,,6.0886,34.2795,,34.2807,34.2812,,34.2831,34.2819,0.3030,,0.3830,0.3260,0.2988,,0.3689,0.3184,0.3222,13.175,16.2719,34.9123,12.995,19.3575,34.6106,34.7615,0.0359,,,,0.5920,,0.0000,,26.9774,,26.9788,,,,,,,,,,,6.0460,6.0457,0.9254,113.860,4.373,4.314,,,,,,,,,,,,
CalCOFI,2105SH,011,,2105_011u,06-May-2021 09:11:10,06-May-2021 01:11:10,31.17624,-120.92112,093.3 080.0,093.3,080.0,483.000,486.928,,6.0914,,6.0914,,6.0914,34.2798,,34.2810,34.2810,,34.2829,34.2820,0.3023,,0.3822,0.3253,0.2999,,0.3700,0.3195,0.3224,13.144,16.2395,34.8894,13.042,19.3241,34.6448,34.7671,0.0368,,,,0.5922,,0.0000,,26.9773,,26.9784,,,,,,,,,,,6.0488,6.0487,0.9254,113.860,4.363,4.329,,,,,,,,,,,,
CalCOFI,2105SH,011,,2105_011u,06-May-2021 09:11:11,06-May-2021 01:11:11,31.17624,-120.92113,093.3 080.0,093.3,080.0,482.000,485.919,,6.0937,,6.0907,,6.0922,34.2797,,34.2809,34.2809,,34.2828,34.2819,0.2977,,0.3774,0.3204,0.3075,,0.3779,0.3274,0.3239,12.944,16.0305,34.7420,13.371,19.1081,34.8848,34.8134,0.0359,,,,0.5925,,0.0000,,26.9770,,26.9783,,,,,,,,,,,6.0511,6.0482,0.9254,113.884,4.297,4.439,,,,,,,,,,,,
CalCOFI,2105SH,011,,2105_011u,06-May-2021 09:11:12,06-May-2021 01:11:12,31.17624,-120.92114,093.3 080.0,093.3,080.0,481.000,484.910,,6.0934,,6.0944,,6.0939,34.2801,,34.2813,34.2813,,34.2832,34.2823,0.3003,,0.3802,0.3232,0.3084,,0.3788,0.3284,0.3258,13.058,16.1496,34.8260,13.409,19.2312,34.9125,34.8693,0.0357,,,,0.5928,,0.0000,,26.9773,,26.9781,,,,,,,,,,,6.0509,6.0520,0.9254,113.838,4.335,4.452,,,,,,,,,,,,
CalCOFI,2105SH,011,,2105_011u,06-May-2021 09:11:13,06-May-2021 01:11:13,31.17624,-120.92114,093.3 080.0,093.3,080.0,480.000,483.900,,6.1016,,6.0976,,6.0996,34.2792,,34.2804,34.2815,,34.2834,34.2819,0.3074,,0.3876,0.3307,0.3029,,0.3731,0.3226,0.3267,13.369,16.4748,35.0553,13.171,19.5671,34.7389,34.8971,0.0350,,,,0.5931,,0.0000,,26.9755,,26.9779,,,,,,,,,,,6.0592,6.0552,0.9254,113.999,4.439,4.373,,,,,,,,,,,,
CalCOFI,2105SH,011,,2105_011u,06-May-2021 09:11:14,06-May-2021 01:11:14,31.17624,-120.92114,093.3 080.0,093.3,080.0,479.000,482.891,,6.1072,,6.1068,,6.1070,34.2793,,34.2805,34.2806,,34.2825,34.2815,0.3033,,0.3833,0.3263,0.3027,,0.3729,0.3224,0.3244,13.189,16.2866,34.9226,13.164,19.3727,34.7338,34.8282,0.0354,,,,0.5935,,0.0000,,26.9749,,26.9760,,,,,,,,,,,6.0648,6.0645,0.9254,114.051,4.380,4.372,,,,,,,,,,,,
CalCOFI,2105SH,011,,2105_011u,06-May-2021 09:11:15,06-May-2021 01:11:15,31.17624,-120.92114,093.3 080.0,093.3,080.0,478.000,481.882,,6.1078,,6.1095,,6.1087,34.2798,,34.2810,34.2807,,34.2826,34.2818,0.3019,,0.3818,0.3249,0.3081,,0.3785,0.3281,0.3265,13.130,16.2249,34.8791,13.398,19.3089,34.9045,34.8918,0.0364,,,,0.5938,,0.0000,,26.9752,,26.9757,,,,,,,,,,,6.0655,6.0672,0.9254,114.009,4.360,4.449,,,,,,,,,,,,
CalCOFI,2105SH,011,,2105_011u,06-May-2021 09:11:16,06-May-2021 01:11:16,31.17624,-120.92114,093.3 080.0,093.3,080.0,477.000,480.873,,6.1161,,6.1102,,6.1132,34.2771,,34.2783,34.2813,,34.2832,34.2808,0.3052,,0.3853,0.3283,0.3111,,0.3816,0.3312,0.3298,13.274,16.3754,34.9853,13.530,19.4645,35.0008,34.9931,0.0351,,,,0.5942,,0.0000,,26.9720,,26.9762,,,,,,,,,,,6.0739,6.0680,0.9254,114.302,4.409,4.493,,,,,,,,,,,,
CalCOFI,2105SH,011,,2105_011u,06-May-2021 09:11:18,06-May-2021 01:11:18,31.17624,-120.92115,093.3 080.0,093.3,080.0,476.000,479.863,,6.1650,,6.1555,,6.1603,34.2779,,34.2791,34.2803,,34.2822,34.2807,0.3095,,0.3898,0.3329,0.3076,,0.3780,0.3275,0.3302,13.458,16.5678,35.1209,13.375,19.6632,34.8877,35.0043,0.0358,,,,0.5949,,0.0000,,26.9664,,26.9696,,,,,,,,,,,6.1227,6.1133,0.9254,114.871,4.475,4.446,,,,,,,,,,,,
CalCOFI,2105SH,011,,2105_011u,06-May-2021 09:11:19,06-May-2021 01:11:19,31.17624,-120.92116,093.3 080.0,093.3,080.0,475.000,478.854,,6.1507,,6.1394,,6.1451,34.2771,,34.2783,34.2791,,34.2810,34.2797,0.3087,,0.3889,0.3320,0.3184,,0.3892,0.3388,0.3354,13.425,16.5333,35.0966,13.844,19.6275,35.2298,35.1632,0.0360,,,,0.5954,,0.0000,,26.9676,,26.9707,,,,,,,,,,,6.1086,6.0973,0.9254,114.733,4.463,4.601,,,,,,,,,,,,
CalCOFI,2105SH,011,,2105_011u,06-May-2021 09:11:20,06-May-2021 01:11:20,31.17624,-120.92116,093.3 080.0,093.3,080.0,474.000,477.845,,6.1540,,6.1422,,6.1481,34.2777,,34.2789,34.2783,,34.2802,34.2796,0.3161,,0.3967,0.3398,0.3208,,0.3917,0.3413,0.3406,13.747,16.8699,35.3339,13.948,19.9753,35.3056,35.3198,0.0358,,,,0.5959,,0.0000,,26.9676,,26.9696,,,,,,,,,,,6.1120,6.1002,0.9254,114.717,4.570,4.636,,,,,,,,,,,,
CalCOFI,2105SH,011,,2105_011u,06-May-2021 09:11:20,06-May-2021 01:11:20,31.17624,-120.92116,093.3 080.0,093.3,080.0,473.000,476.836,,6.1635,,6.1524,,6.1580,34.2734,,34.2746,34.2797,,34.2816,34.2781,0.3182,,0.3989,0.3420,0.3240,,0.3950,0.3447,0.3434,13.838,16.9650,35.4010,14.091,20.0736,35.4099,35.4055,0.0357,,,,0.5963,,0.0000,,26.9630,,26.9694,,,,,,,,,,,6.1215,6.1105,0.9254,115.148,4.601,4.684,,,,,,,,,,,,
CalCOFI,2105SH,011,,2105_011u,06-May-2021 09:11:21,06-May-2021 01:11:21,31.17624,-120.92116,093.3 080.0,093.3,080.0,472.000,475.826,,6.2067,,6.1937,,6.2002,34.2712,,34.2724,34.2738,,34.2757,34.2741,0.3220,,0.4028,0.3461,0.3244,,0.3954,0.3451,0.3456,14.004,17.1386,35.5234,14.108,20.2529,35.4223,35.4729,0.0357,,,,0.5966,,0.0000,,26.9558,,26.9595,,,,,,,,,,,6.1646,6.1517,0.9254,115.865,4.661,4.694,,,,,,,,,,,,
CalCOFI,2105SH,011,,2105_011u,06-May-2021 09:11:22,06-May-2021 01:11:22,31.17624,-120.92116,093.3 080.0,093.3,080.0,471.000,474.817,,6.2232,,6.1994,,6.2113,34.2726,,34.2738,34.2772,,34.2791,34.2765,0.3253,,0.4063,0.3495,0.3295,,0.4007,0.3504,0.3500,14.144,17.2849,35.6266,14.331,20.4041,35.5850,35.6058,0.0363,,,,0.5970,,0.0000,,26.9548,,26.9614,,,,,,,,,,,6.1811,6.1575,0.9254,115.960,4.710,4.769,,,,,,,,,,,,
CalCOFI,2105SH,011,,2105_011u,06-May-2021 09:11:22,06-May-2021 01:11:22,31.17624,-120.92116,093.3 080.0,093.3,080.0,470.000,473.808,,6.2251,,6.2104,,6.2178,34.2725,,34.2737,34.2786,,34.2805,34.2771,0.3256,,0.4066,0.3498,0.3325,,0.4038,0.3535,0.3517,14.161,17.3027,35.6391,14.459,20.4224,35.6783,35.6587,0.0347,,,,0.5974,,0.0000,,26.9544,,26.9611,,,,,,,,,,,6.1831,6.1685,0.9254,115.983,4.715,4.813,,,,,,,,,,,,
CalCOFI,2105SH,011,,2105_011u,06-May-2021 09:11:23,06-May-2021 01:11:23,31.17624,-120.92116,093.3 080.0,093.3,080.0,469.000,472.798,,6.2360,,6.2292,,6.2326,34.2715,,34.2727,34.2768,,34.2787,34.2757,0.3262,,0.4072,0.3505,0.3386,,0.4101,0.3599,0.3552,14.184,17.3268,35.6561,14.724,20.4473,35.8716,35.7639,0.0353,,,,0.5979,,0.0000,,26.9522,,26.9573,,,,,,,,,,,6.1941,6.1873,0.9254,116.189,4.724,4.903,,,,,,,,,,,,
CalCOFI,2105SH,011,,2105_011u,06-May-2021 09:11:24,06-May-2021 01:11:24,31.17624,-120.92116,093.3 080.0,093.3,080.0,468.000,471.789,,6.2485,,6.2520,,6.2503,34.2700,,34.2712,34.2727,,34.2746,34.2729,0.3341,,0.4155,0.3588,0.3402,,0.4118,0.3616,0.3602,14.527,17.6853,35.9089,14.794,20.8177,35.9227,35.9158,0.0361,,,,0.5987,,0.0000,,26.9494,,26.9511,,,,,,,,,,,6.2067,6.2102,0.9254,116.454,4.840,4.929,,,,,,,,,,,,
CalCOFI,2105SH,011,,2105_011u,06-May-2021 09:11:26,06-May-2021 01:11:26,31.17623,-120.92116,093.3 080.0,093.3,080.0,467.000,470.780,,6.2681,,6.2672,,6.2677,34.2680,,34.2692,34.2705,,34.2724,34.2708,0.3358,,0.4173,0.3606,0.3387,,0.4102,0.3600,0.3603,14.605,17.7669,35.9664,14.729,20.9020,35.8752,35.9208,0.0355,,,,0.5999,,0.0000,,26.9453,,26.9474,,,,,,,,,,,6.2263,6.2254,0.9254,116.842,4.868,4.909,,,,,,,,,,,,
CalCOFI,2105SH,011,,2105_011u,06-May-2021 09:11:27,06-May-2021 01:11:27,31.17622,-120.92118,093.3 080.0,093.3,080.0,466.000,469.771,,6.2622,,6.2627,,6.2625,34.2689,,34.2701,34.2709,,34.2728,34.2715,0.3344,,0.4158,0.3591,0.3447,,0.4164,0.3663,0.3627,14.544,17.7031,35.9215,14.991,20.8361,36.0663,35.9939,0.0354,,,,0.6009,,0.0000,,26.9468,,26.9483,,,,,,,,,,,6.2205,6.2210,0.9254,116.688,4.847,4.996,,,,,,,,,,,,
CalCOFI,2105SH,011,,2105_011u,06-May-2021 09:11:28,06-May-2021 01:11:28,31.17622,-120.92118,093.3 080.0,093.3,080.0,465.000,468.762,,6.2590,,6.2598,,6.2594,34.2695,,34.2707,34.2707,,34.2726,34.2717,0.3403,,0.4220,0.3654,0.3455,,0.4173,0.3671,0.3663,14.798,17.9686,36.1087,15.024,21.1104,36.0904,36.0996,0.0365,,,,0.6017,,0.0000,,26.9476,,26.9485,,,,,,,,,,,6.2174,6.2182,0.9254,116.586,4.931,5.007,,,,,,,,,,,,
CalCOFI,2105SH,011,,2105_011u,06-May-2021 09:11:29,06-May-2021 01:11:29,31.17622,-120.92118,093.3 080.0,093.3,080.0,464.000,467.752,,6.2716,,6.2759,,6.2738,34.2668,,34.2680,34.2682,,34.2701,34.2691,0.3438,,0.4256,0.3690,0.3447,,0.4164,0.3663,0.3677,14.952,18.1296,36.2222,14.991,21.2767,36.0663,36.1443,0.0360,,,,0.6025,,0.0000,,26.9439,,26.9444,,,,,,,,,,,6.2300,6.2343,0.9254,116.937,4.984,4.997,,,,,,,,,,,,
CalCOFI,2105SH,011,,2105_011u,06-May-2021 09:11:30,06-May-2021 01:11:30,31.17622,-120.92118,093.3 080.0,093.3,080.0,463.000,466.743,,6.2862,,6.2826,,6.2844,34.2657,,34.2669,34.2675,,34.2694,34.2682,0.3465,,0.4285,0.3719,0.3516,,0.4236,0.3735,0.3727,15.070,18.2530,36.3092,15.293,21.4042,36.2866,36.2979,0.0353,,,,0.6032,,0.0000,,26.9411,,26.9430,,,,,,,,,,,6.2447,6.2411,0.9254,117.202,5.025,5.099,,,,,,,,,,,,
CalCOFI,2105SH,011,,2105_011u,06-May-2021 09:11:31,06-May-2021 01:11:31,31.17622,-120.92118,093.3 080.0,093.3,080.0,462.000,465.734,,6.2979,,6.2909,,6.2944,34.2643,,34.2655,34.2675,,34.2694,34.2675,0.3482,,0.4302,0.3737,0.3517,,0.4237,0.3736,0.3737,15.144,18.3303,36.3638,15.294,21.4841,36.2873,36.3256,0.0363,,,,0.6038,,0.0000,,26.9385,,26.9420,,,,,,,,,,,6.2565,6.2494,0.9254,117.444,5.051,5.100,,,,,,,,,,,,
CalCOFI,2105SH,011,,2105_011u,06-May-2021 09:11:32,06-May-2021 01:11:32,31.17622,-120.92118,093.3 080.0,093.3,080.0,461.000,464.725,,6.3067,,6.2972,,6.3020,34.2642,,34.2654,34.2669,,34.2688,34.2671,0.3516,,0.4338,0.3773,0.3548,,0.4269,0.3768,0.3771,15.291,18.4840,36.4721,15.430,21.6428,36.3865,36.4293,0.0361,,,,0.6045,,0.0000,,26.9373,,26.9407,,,,,,,,,,,6.2653,6.2558,0.9254,117.559,5.101,5.146,,,,,,,,,,,,
CalCOFI,2105SH,011,,2105_011u,06-May-2021 09:11:33,06-May-2021 01:11:33,31.17622,-120.92118,093.3 080.0,093.3,080.0,460.000,463.715,,6.3116,,6.3020,,6.3068,34.2644,,34.2656,34.2671,,34.2690,34.2673,0.3486,,0.4307,0.3741,0.3553,,0.4274,0.3773,0.3757,15.161,18.3481,36.3763,15.450,21.5024,36.4011,36.3887,0.0358,,,,0.6053,,0.0000,,26.9368,,26.9401,,,,,,,,,,,6.2703,6.2607,0.9254,117.592,5.058,5.153,,,,,,,,,,,,
CalCOFI,2105SH,011,,2105_011u,06-May-2021 09:11:34,06-May-2021 01:11:34,31.17622,-120.92119,093.3 080.0,093.3,080.0,459.000,462.706,,6.3202,,6.3198,,6.3200,34.2634,,34.2646,34.2660,,34.2679,34.2663,0.3538,,0.4361,0.3796,0.3596,,0.4319,0.3818,0.3807,15.386,18.5833,36.5422,15.637,21.7454,36.5375,36.5399,0.0359,,,,0.6063,,0.0000,,26.9349,,26.9370,,,,,,,,,,,6.2789,6.2785,0.9254,117.767,5.134,5.218,,,,,,,,,,,,
CalCOFI,2105SH,011,,2105_011u,06-May-2021 09:11:36,06-May-2021 01:11:36,31.17622,-120.92120,093.3 080.0,093.3,080.0,458.000,461.697,,6.3330,,6.3315,,6.3323,34.2628,,34.2640,34.2646,,34.2665,34.2653,0.3584,,0.4409,0.3844,0.3607,,0.4330,0.3829,0.3837,15.585,18.7914,36.6889,15.688,21.9604,36.5747,36.6318,0.0362,,,,0.6074,,0.0000,,26.9327,,26.9344,,,,,,,,,,,6.2918,6.2903,0.9254,117.970,5.202,5.236,,,,,,,,,,,,